Orbital Elements at Epoch 2459000.5 (2020-May-31.0) TDB
Reference: JPL 32 (heliocentric ecliptic J2000)
Element | Value | Uncertainty (1-sigma) | Units |
e | .1508074934788913 | 3.6831e-08 | |
a | 3.132087912940617 | 1.8078e-08 | au |
q | 2.659745585434511 | 1.167e-07 | au |
i | 1.072783395585472 | 4.218e-06 | deg |
node | 174.4331930001452 | 0.000216 | deg |
peri | 46.20024068640348 | 0.00021642 | deg |
M | 218.0040463918295 | 1.48e-05 | deg |
tp | 2459799.088055381362 (2022-Aug-07.58805538) | 8.6135e-05 | TDB |
period | 2024.647129949962 5.54 | 1.7529e-05 4.799e-08 | d yr |
n | .1778087621663224 | 1.5394e-09 | deg/d |
Q | 3.604430240446723 | 2.0804e-08 | au |
|
| | Orbit Determination Parameters
Additional Information
|